Bloomington, IN

12:02 AM EDT on April 26, 2018 (GMT -0400)
Monroe County

Weather History for KBMG - November, 2011

Change the Weather History Date:

Tuesday, November 22, 2011

  Actual Average Record
Temperature  
Mean Temperature 54 °F 41 °F  
Max Temperature 63 °F 50 °F 70 °F (2010)
Min Temperature 44 °F 32 °F 12 °F (2000)
Degree Days  
Heating Degree Days 11 24  
Month to date heating degree days 313 427  
Since 1 July heating degree days 755 846  
Cooling Degree Days 0 0  
Month to date cooling degree days 0 0  
Year to date cooling degree days 1170 926  
Growing Degree Days 3 (Base 50)    
Moisture  
Dew Point 48 °F    
Average Humidity 96    
Maximum Humidity 100    
Minimum Humidity 92    
Precipitation  
Precipitation 0.55 in 0.13 in 0.55 in (2011)
Month to date precipitation 2.20 2.93  
Year to date precipitation 49.48 43.00  
Sea Level Pressure  
Sea Level Pressure 29.87 in    
Wind  
Wind Speed 9 mph (ESE)    
Max Wind Speed 23 mph    
Max Gust Speed 32 mph    
Visibility 6 miles    
Events Rain , Thunderstorm    
T = Trace of Precipitation, MM = Missing Value Source: NWS Daily Summary

Daily Weather History Graph

Daily Weather History Graph

Search for Another Location

Airport or City:

Astronomy

Nov. 22, 2011 Rise Set
Actual Time 7:37 AM EST 5:27 PM EST
Civil Twilight 7:08 AM EST 5:56 PM EST
Nautical Twilight 6:35 AM EST 6:29 PM EST
Astronomical Twilight 6:03 AM EST 7:01 PM EST
Moon 4:28 AM EST (11/22) 3:26 PM EST (11/22)
Length of Visible Light 10h 48m
Length of Day
9h 50m
Waning Crescent, 9% of the Moon is Illuminated
Nov 22
Waning Crescent
Nov 25
New
Dec 2
First Quarter
Dec 10
Full
Dec 17
Last Quarter

Hourly Weather History & Observations

Time (EST) Temp. Windchill Dew Point Humidity Pressure Visibility Wind Dir Wind Speed Gust Speed Precip Events Conditions
12:53 AM 48.0 °F - 46.9 °F 96% 30.10 in 3.0 mi ENE 5.8 mph - N/A   Overcast
1:53 AM 46.9 °F - 46.0 °F 97% 30.08 in 4.0 mi East 5.8 mph - N/A   Overcast
2:53 AM 46.9 °F - 46.0 °F 97% 30.05 in 7.0 mi ENE 6.9 mph - N/A   Overcast
3:53 AM 46.9 °F - 46.0 °F 97% 30.03 in 5.0 mi East 6.9 mph - N/A   Overcast
4:16 AM 46.4 °F 43.5 °F 46.4 °F 100% 30.02 in 2.5 mi East 5.8 mph - N/A   Overcast
4:53 AM 46.9 °F - 46.0 °F 97% 30.02 in 2.0 mi ESE 4.6 mph - N/A   Overcast
5:08 AM 46.4 °F - 46.4 °F 100% 30.03 in 1.8 mi Calm Calm - 0.02 in Rain , Thunderstorm Light Thunderstorms and Rain
5:19 AM 46.4 °F 44.3 °F 46.4 °F 100% 30.02 in 2.0 mi ESE 4.6 mph - 0.09 in Rain Heavy Rain
5:27 AM 46.4 °F 44.3 °F 46.4 °F 100% 30.01 in 2.5 mi East 4.6 mph - 0.12 in Rain , Thunderstorm Rain
5:36 AM 46.4 °F 45.2 °F 46.4 °F 100% 30.02 in 3.0 mi East 3.5 mph - 0.15 in Rain , Thunderstorm Rain
5:46 AM 46.4 °F 44.3 °F 46.4 °F 100% 30.01 in 4.0 mi ENE 4.6 mph - 0.18 in Rain Rain
6:14 AM 46.4 °F 45.2 °F 46.4 °F 100% 30.00 in 6.0 mi East 3.5 mph - 0.03 in Rain Rain
6:23 AM 46.4 °F 45.2 °F 46.4 °F 100% 30.00 in 5.0 mi East 3.5 mph - 0.05 in Rain Rain
6:30 AM 46.4 °F 44.3 °F 46.4 °F 100% 29.99 in 5.0 mi East 4.6 mph - 0.06 in Rain Rain
6:39 AM 46.4 °F 45.2 °F 46.4 °F 100% 29.99 in 5.0 mi East 3.5 mph - 0.07 in Rain Rain
6:53 AM 46.9 °F - 46.0 °F 97% 29.99 in 3.0 mi ESE 4.6 mph - 0.13 in Rain Heavy Rain
7:07 AM 46.4 °F 42.9 °F 46.4 °F 100% 29.98 in 5.0 mi East 6.9 mph - 0.02 in Rain Rain
7:14 AM 46.4 °F 42.9 °F 46.4 °F 100% 29.97 in 6.0 mi East 6.9 mph - 0.03 in Rain Rain
7:53 AM 46.9 °F - 46.0 °F 97% 29.95 in 9.0 mi ESE 9.2 mph - 0.06 in Rain Light Rain
8:53 AM 48.0 °F - 46.9 °F 96% 29.92 in 10.0 mi ESE 8.1 mph - 0.00 in Rain Light Rain
9:53 AM 48.0 °F - 48.0 °F 100% 29.84 in 10.0 mi ENE 8.1 mph - 0.00 in Rain Light Rain
10:53 AM 48.9 °F - 48.0 °F 97% 29.81 in 10.0 mi East 10.4 mph - 0.02 in   Overcast
11:53 AM 50.0 °F - 48.9 °F 96% 29.76 in 2.5 mi ESE 8.1 mph - 0.02 in Rain Rain
12:01 PM 50.0 °F - 48.2 °F 94% 29.76 in 1.8 mi ESE 12.7 mph - 0.05 in Rain Light Rain
12:05 PM 50.0 °F - 48.2 °F 94% 29.76 in 4.0 mi SSE 8.1 mph - 0.05 in Rain Light Rain
12:53 PM 52.0 °F - 51.1 °F 97% 29.70 in 10.0 mi South 6.9 mph - 0.05 in   Overcast
1:48 PM 55.4 °F - 53.6 °F 94% 29.66 in 1.8 mi SSE 9.2 mph - 0.03 in Rain Rain
1:53 PM 55.9 °F - 55.0 °F 97% 29.66 in 1.5 mi SSE 6.9 mph - 0.05 in Rain Rain
2:00 PM 55.4 °F - 55.4 °F 100% 29.65 in 3.0 mi South 6.9 mph - 0.00 in Rain Light Rain
2:41 PM 59.0 °F - 57.2 °F 94% 29.64 in 9.0 mi South 9.2 mph - 0.00 in   Overcast
2:53 PM 61.0 °F - 59.0 °F 93% 29.63 in 10.0 mi SSW 13.8 mph 19.6 mph 0.00 in   Overcast
3:53 PM 62.1 °F - 57.9 °F 86% 29.63 in 10.0 mi SW 19.6 mph 32.2 mph 0.02 in Rain Light Rain
4:17 PM 59.0 °F - 55.4 °F 88% 29.65 in 10.0 mi WSW 18.4 mph 28.8 mph 0.00 in Rain Light Rain
4:53 PM 55.9 °F - 54.0 °F 93% 29.67 in 3.0 mi WSW 13.8 mph 26.5 mph 0.00 in Rain Light Rain
5:53 PM 53.1 °F - 51.1 °F 93% 29.71 in 10.0 mi West 16.1 mph 21.9 mph 0.00 in Rain Light Rain
6:53 PM 48.9 °F - 48.0 °F 97% 29.75 in 4.0 mi West 13.8 mph 21.9 mph 0.00 in Rain Light Rain
8:53 PM 45.0 °F 39.7 °F 43.0 °F 93% 29.83 in 6.0 mi WNW 10.4 mph 17.3 mph 0.00 in Rain Light Rain
9:10 PM 44.6 °F 39.7 °F 42.8 °F 93% 29.84 in 5.0 mi WNW 9.2 mph 19.6 mph 0.00 in Rain Light Rain
9:53 PM 45.0 °F 40.1 °F 43.0 °F 93% 29.87 in 9.0 mi WNW 9.2 mph 16.1 mph 0.00 in   Overcast
10:53 PM 44.1 °F 39.5 °F 42.1 °F 93% 29.89 in 10.0 mi NW 8.1 mph - N/A   Overcast
11:53 PM 44.1 °F 39.0 °F 43.0 °F 96% 29.91 in 10.0 mi NNW 9.2 mph - N/A   Overcast